Weather History for KHEY - February, 2014

Change the Weather History Date:

Thursday, February 27, 2014

  Actual Average (KOZR) Record (KOZR)
Temperature  
Mean Temperature 42 °F -  
Max Temperature 54 °F 64 °F 79 °F (2011)
Min Temperature 30 °F 42 °F 26 °F (2002)
Degree Days  
Heating Degree Days 23    
Moisture  
Dew Point 19 °F    
Average Humidity 46    
Maximum Humidity 79    
Minimum Humidity 18    
Precipitation  
Precipitation 0.00 in - - ()
Sea Level Pressure  
Sea Level Pressure 29.98 in    
Wind  
Wind Speed 7 mph (NNW)    
Max Wind Speed 10 mph    
Max Gust Speed 18 mph    
Visibility 10 miles    
Events      
Averages and records for this station are not official NWS values.
T = Trace of Precipitation, MM = Missing Value Source: NWS Daily Summary

Daily Weather History Graph

Daily Weather History Graph

Search for Another Location

Airport or City:

Trip Planner

Search our weather history database for the weather conditions in past years. The results will help you decide how hot, cold, wet, or windy it might be!

Date:

Astronomy

Feb. 27, 2014 Rise Set
Actual Time 6:11 AM CST 5:39 PM CST
Civil Twilight 5:47 AM CST 6:03 PM CST
Nautical Twilight 5:19 AM CST 6:31 PM CST
Astronomical Twilight 4:51 AM CST 7:00 PM CST
Moon 4:38 AM CST (2/27) 4:07 PM CST (2/27)
Length of Visible Light 12h 16m
Length of Day
11h 27m
Waning Crescent, 4% of the Moon is Illuminated
Feb 27
Waning Crescent
Mar 1
New
Mar 8
First Quarter
Mar 16
Full
Mar 23
Last Quarter

Hourly Weather History & Observations

Time (CST) Temp. Windchill Dew Point Humidity Pressure Visibility Wind Dir Wind Speed Gust Speed Precip Events Conditions
12:53 AM 37.9 °F 32.7 °F 26.1 °F 62% 29.95 in 10.0 mi NW 6.9 mph - N/A   Clear
1:53 AM 37.0 °F 31.6 °F 26.1 °F 65% 29.94 in 10.0 mi NNW 6.9 mph - N/A   Clear
2:53 AM 36.0 °F 29.6 °F 26.1 °F 67% 29.94 in 10.0 mi NNW 8.1 mph - N/A   Clear
3:53 AM 36.0 °F 29.0 °F 21.9 °F 57% 29.95 in 10.0 mi NNW 9.2 mph - N/A   Clear
4:53 AM 34.0 °F 26.0 °F 19.0 °F 54% 29.98 in 10.0 mi North 10.4 mph - N/A   Clear
5:53 AM 32.0 °F 26.4 °F 17.1 °F 54% 30.00 in 10.0 mi NNW 5.8 mph - N/A   Clear
6:53 AM 30.9 °F 24.3 °F 15.1 °F 52% 30.02 in 10.0 mi NNW 6.9 mph - N/A   Clear
7:53 AM 35.1 °F 27.9 °F 14.0 °F 42% 30.03 in 10.0 mi NNW 9.2 mph - N/A   Clear
8:53 AM 37.9 °F 32.1 °F 10.9 °F 33% 30.03 in 10.0 mi North 8.1 mph - N/A   Clear
9:53 AM 42.1 °F 37.1 °F 12.9 °F 31% 30.02 in 10.0 mi North 8.1 mph - N/A   Clear
10:53 AM 45.0 °F 40.1 °F 12.0 °F 26% 30.01 in 10.0 mi NW 9.2 mph 18.4 mph N/A   Clear
11:53 AM 48.9 °F - 12.9 °F 24% 29.99 in 10.0 mi NNW 8.1 mph - N/A   Clear
12:53 PM 51.1 °F - 12.0 °F 21% 29.96 in 10.0 mi North 10.4 mph - N/A   Clear
1:53 PM 53.1 °F - 12.9 °F 20% 29.95 in 10.0 mi NW 6.9 mph - N/A   Clear
2:53 PM 54.0 °F - 10.9 °F 18% 29.94 in 10.0 mi NW 4.6 mph - N/A   Clear
3:53 PM 54.0 °F - 14.0 °F 21% 29.93 in 10.0 mi NNW 8.1 mph - N/A   Clear
4:53 PM 53.1 °F - 16.0 °F 23% 29.94 in 10.0 mi NNW 5.8 mph - N/A   Clear
5:53 PM 46.9 °F - 19.0 °F 33% 29.96 in 10.0 mi NNW 5.8 mph - N/A   Clear
6:53 PM 42.1 °F 39.2 °F 21.9 °F 45% 29.97 in 10.0 mi NNW 4.6 mph - N/A   Clear
7:53 PM 37.0 °F 32.4 °F 27.0 °F 67% 29.99 in 10.0 mi NNW 5.8 mph - N/A   Clear
8:53 PM 37.0 °F 33.3 °F 21.9 °F 54% 30.00 in 10.0 mi NNW 4.6 mph - N/A   Clear
9:53 PM 33.1 °F 28.7 °F 26.1 °F 75% 30.01 in 10.0 mi NNW 4.6 mph - N/A   Clear
10:53 PM 32.0 °F - 24.1 °F 73% 30.01 in 10.0 mi Calm Calm - N/A   Clear
11:53 PM 30.0 °F 25.2 °F 24.1 °F 79% 30.01 in 10.0 mi WNW 4.6 mph - N/A   Clear